This demonstration page uses our WeatherBlox Daily Observations layout. Learn more.

38.89511, -77.03637

Hourly Observations for June 20, 2020

Temp ( °F °C ) Dew Point ( °F °C ) Humidity (%) Winds ( mph kmh ) Pressure ( in mb ) Visibility ( mi km ) Precip ( " mm )
12:52 am 00:52 Partly Cloudy 72 22.2 67 19.4 84 84 SSE 6 9 30.08 1019 10 16.0934 0 0
1:52 am 01:52 Mostly Clear 71 21.7 67 19.4 87 87 SSE 5 7 30.06 1018 10 16.0934 0 0
2:52 am 02:52 Mostly Clear 70 21.1 67 19.4 90 90 S 6 9 30.05 1018 10 16.0934 0 0
3:52 am 03:52 Clear 70 21.1 67 19.4 90 90 Calm 30.04 1017 10 16.0934 0 0
4:52 am 04:52 Partly Cloudy 69 20.6 66 18.9 90 90 SE 5 7 30.05 1018 10 16.0934 0 0
5:52 am 05:52 Mostly Cloudy 70 21.1 66 18.9 87 87 Calm 30.06 1018 10 16.0934 0 0
6:52 am 06:52 Mostly Cloudy 70 21.1 66 18.9 87 87 Calm 30.05 1018 10 16.0934 0 0
7:50 am 07:50 Mostly Cloudy 72 22 66 19 83 83 S 5 7 30.07 1018 10 16.0934 0 0
7:52 am 07:52 Mostly Cloudy 72 22.2 67 19.4 84 84 S 5 7 30.06 1018 10 16.0934 0 0
8:17 am 08:17 Mostly Cloudy 72 22.2 66 18.9 82 82 Calm 30.06 1018 10 16.0934 0 0
8:52 am 08:52 Mostly Cloudy 76 24.4 67 19.4 74 74 Calm 30.06 1018 10 16.0934 0 0
9:05 am 09:05 Mostly Cloudy 76 24.4 67 19.4 74 74 Calm 30.07 1018 10 16.0934 0 0
9:52 am 09:52 Mostly Cloudy 79 26.1 68 20 69 69 VRB 3 6 30.08 1019 10 16.0934 0 0
10:06 am 10:06 Mostly Cloudy 78 25.6 68 20 71 71 NNE 3 6 30.07 1018 10 16.0934 0 0
10:19 am 10:19 Partly Cloudy with Nearby Thunderstorms 78 25.6 68 20 71 71 Calm 30.07 1018 10 16.0934 0 0
10:35 am 10:35 Mostly Cloudy with Thunderstorms 77 25 68 20 74 74 Calm 30.07 1018 10 16.0934 0 0
10:52 am 10:52 Mostly Cloudy with Thunderstorms 76 24.4 68 20 77 77 SE 5 7 30.07 1018 10 16.0934 0 0
11:52 am 11:52 Mostly Cloudy with Light Thunderstorms 74 23.3 70 21.1 88 88 Calm 30.06 1018 3 4.82802 0.001 0.001
11:57 am 11:57 Cloudy with Heavy Thunderstorms 74 23.3 70 21.1 88 88 NNE 5 7 30.06 1018 1.5 2.41401 0.08 2.032
12:04 pm 12:04 Cloudy with Light Thunderstorms 74 23.3 70 21.1 88 88 NE 12 19 30.06 1018 3 4.82802 0.09 2.286
12:52 pm 12:52 Mostly Cloudy with Light Thunderstorms 75 23.9 68 20 79 79 N 9 15 30.06 1018 10 16.0934 0.1 2.54
1:10 pm 13:10 Cloudy with Heavy Thunderstorms 72 22.2 67 19.4 84 84 NNE 8 13 30.06 1018 1.75 2.816345 0.03 0.762
1:17 pm 13:17 Cloudy with Thunderstorms 71 21.7 67 19.4 87 87 NE 7 11 30.06 1018 0.75 1.207005 0.26 6.604
1:22 pm 13:22 Cloudy with Light Thunderstorms 72 22.2 68 20 87 87 VRB 5 7 30.06 1018 1.5 2.41401 0.28 7.112
1:24 pm 13:24 Cloudy with Light Thunderstorms 72 22.2 68 20 87 87 E 6 9 30.06 1018 2.5 4.02335 0.28 7.112
1:26 pm 13:26 Cloudy with Light Thunderstorms 72 22.2 69 20.6 91 91 ENE 6 9 30.05 1018 4 6.43736 0.28 7.112
1:52 pm 13:52 Mostly Cloudy with Light Thunderstorms 72 22.2 69 20.6 91 91 NE 9 15 30.05 1018 10 16.0934 0.29 7.366
2:02 pm 14:02 Mostly Cloudy with Thunderstorms 72 22.2 69 20.6 91 91 E 8 13 30.06 1018 10 16.0934 0.001 0.001
2:32 pm 14:32 Mostly Cloudy with Light Rain 71 21.7 67 19.4 87 87 SSE 5 7 30.06 1018 10 16.0934 0.001 0.001
2:52 pm 14:52 Cloudy with Light Rain 71 21.7 67 19.4 87 87 Calm 30.05 1018 8 12.87472 0.001 0.001
3:52 pm 15:52 Mostly Cloudy with Light Rain 71 21.7 68 20 90 90 SE 6 9 30.04 1017 8 12.87472 0.06 1.524
4:52 pm 16:52 Cloudy with Light Rain 73 22.8 69 20.6 87 87 E 3 6 30.01 1016 10 16.0934 0.02 0.508
5:52 pm 17:52 Mostly Cloudy 76 24.4 70 21.1 82 82 ESE 7 11 30.01 1016 10 16.0934 0.001 0.001
6:52 pm 18:52 Mostly Cloudy 76 24.4 68 20 77 77 E 3 6 30.01 1016 10 16.0934 0 0
7:52 pm 19:52 Mostly Cloudy 75 23.9 68 20 79 79 E 9 15 30.01 1016 10 16.0934 0 0
8:52 pm 20:52 Mostly Cloudy 73 22.8 69 20.6 87 87 E 3 6 30 1016 10 16.0934 0 0
9:52 pm 21:52 Partly Cloudy 72 22.2 68 20 87 87 E 5 7 30.02 1017 10 16.0934 0 0
10:52 pm 22:52 Partly Cloudy 72 22.2 68 20 87 87 E 3 6 30.01 1016 10 16.0934 0 0
11:36 pm 23:36 Partly Cloudy 71 21.7 68 20 90 90 Calm 30.01 1016 10 16.0934 0 0
11:52 pm 23:52 Mostly Clear 71 21.7 68 20 90 90 E 5 7 30.01 1016 10 16.0934 0 0

Powered by AerisWeather